Regional Weather Roundup
Issued by NWS

Home | Current Version | Previous Version | Graphics & Text | Print | Product List | Glossary On
Versions: 1 2 3 4 5 6 7 8 9 10 11 12 13 14 15 16 17 18 19 20 21 22 23 24 25 26 27
000
ASUS45 KBOU 051807
RWRCO

WEATHER ROUNDUP FOR COLORADO
NATIONAL WEATHER SERVICE DENVER/BOULDER CO
1100 AM MST MON DEC 05 2016

NOTE: "FAIR" INDICATES FEW OR NO CLOUDS BELOW 12000 FEET WITH NO
SIGNIFICANT WEATHER AND/OR OBSTRUCTIONS TO VISIBILITY.

COZ001>005-013-030-031-051900-
...NORTHWEST COLORADO...

CITY           SKY/WX    TMP DP  RH WIND       PRES   REMARKS
CRAIG          CLOUDY    27  10  49 NW20G26   29.85S WCI  13
HAYDEN         CLOUDY    23   9  54 W14G25    29.84S WCI  11
MEEKER         CLOUDY    32  21  64 NW14      29.82R WCI  22
MOUNT WERNER   NOT AVBL
STEAMBOAT SPGS CLOUDY    22  16  78 SW12      29.81F WCI  10
WALDEN           N/A     21  12  68 W20       29.75F WCI   6
$$

COZ006>008-011-051900-
...WEST CENTRAL VALLEYS...

CITY           SKY/WX    TMP DP  RH WIND       PRES   REMARKS
GRAND JUNCTION FAIR      36  23  59 CALM      29.87R
MONTROSE       FAIR      38  20  48 N6        29.86F
EAGLE          SUNNY     39  14  35 W24G31    29.78F
RIFLE          FAIR      36  19  50 NW3       29.83F
DELTA          FAIR      38  23  53 CALM      29.85S
NUCLA          FAIR      41  16  36 N5        29.90F
$$

COZ017>023-064>068-051900-
...SOUTHWEST COLORADO...

CITY           SKY/WX    TMP DP  RH WIND       PRES   REMARKS
DURANGO        FAIR      37  20  50 E6        29.89F
CORTEZ         FAIR      44  20  38 CALM      29.90F
PAGOSA SPRINGS FAIR      35  14  41 SW5       29.89F WCI  31
TELLURIDE      PTSUNNY   35  13  41 W13G22    29.90F WCI  26
WOLF CREEK PAS FAIR      18  10  73 SW14      29.93F WCI   4
$$

COZ009-010-012-014-032>034-037-058>063-051900-
...CENTRAL COLORADO...

CITY           SKY/WX    TMP DP  RH WIND       PRES   REMARKS
ASPEN          CLOUDY    34  15  46 N5        29.78F WCI  30
BUENA VISTA    CLOUDY    38  12  35 W20G28    29.76F
COPPER MTN     NOT AVBL
BERTHOUD PASS  SNOW      10   0  61 MISG      29.66F VSB 1/4
COTTONWOOD PAS CLOUDY    32  14  47 W3        29.77F
GUNNISON       FLURRIES  27  13  55 CALM      29.85F
KREMMLING      PTSUNNY   34  19  55 N15G25    29.73F WCI  24
LEADVILLE      FLURRIES  27  11  51 W16G25    29.75F WCI  15
MONARCH PASS   CLOUDY    18  10  73 W33G47    29.89R WCI  -3
SALIDA         FAIR      44  13  28 SW21G29   29.84F
SUNLIGHT       CLOUDY    19  14  79 SW13G25   29.82S WCI   7
WILKERSON PASS CLOUDY    25  16  68 W12G26    29.77S WCI  14
$$

COZ069>075-051900-
...SAN LUIS VALLEY/SANGRE DE CRISTO MOUNTAINS...

CITY           SKY/WX    TMP DP  RH WIND       PRES   REMARKS
ALAMOSA        FAIR      30  13  49 VRB3      29.81F
LA VETA PASS   FAIR      36  12  38 NE18G33   29.80F
SAGUACHE       PTSUNNY   36  14  41 SE7       29.81F
$$

COZ035-036-038>040-051900-
...NORTHERN COLORADO FRONT RANGE...

CITY           SKY/WX    TMP DP  RH WIND       PRES   REMARKS
DENVER INTL AP FAIR      53  18  25 W26G37    29.62R
DMNS CITY PARK   N/A     51  18  26 W13G26    29.64F
AURORA         MOSUNNY   53  18  25 W18       29.64S
FRONT RANGE AP MOSUNNY   55  21  26 W24G32    29.63S
ERIE MUNI ARPT FAIR      51  19  28 W15G30    29.64S
BOULDER MUN AP PTSUNNY   46  23  39 W17G28    29.65S
CENTENNIAL     FAIR      49  14  24 NW30G38   29.65R
BROOMFIELD     MOSUNNY   50  16  25 SW25G37   29.67S
FORT COLLINS   FAIR      48  21  34 W12       29.65R
LONGMONT       FAIR      52  20  29 SW21G29   29.66F
$$

COZ041-046-047-076>085-087-088-051900-
...PIKES PEAK/PALMER DIVIDE AND SOUTHERN FOOTHILLS...

CITY           SKY/WX    TMP DP  RH WIND       PRES   REMARKS
COLO. SPRINGS  FAIR      56   8  14 W23G32    29.63F
A. F. ACADEMY  FAIR      52   9  17 W24G35    29.64S
SCHRIEVER AFB  NOT AVBL
ELLICOTT       FAIR     N/A N/A N/A SW9       29.62F
FALCON         FAIR      51   7  16 W26G41    29.66F
FORT CARSON    FAIR      57  11  16 W28G37    29.60F
LIMON          FAIR      56  18  22 NW16      29.61F
MONUMENT HILL  FAIR      48  14  25 NW21      29.67S
TRINIDAD       FAIR      56  12  17 E5        29.64F
$$

COZ042>045-048>051-090-091-051900-
...NORTHEAST COLORADO...

CITY           SKY/WX    TMP DP  RH WIND       PRES   REMARKS
GREELEY ARPT   FAIR      52  21  29 W23G32    29.63R
AKRON          FAIR      52  19  27 W9        29.60F
BURLINGTON     FAIR      59  16  18 NE14      29.58F
WRAY           NOT AVBL
STERLING       FAIR      46  21  36 SW5       29.60S
HOLYOKE        FAIR      50  21  32 W6        29.59F
FORT MORGAN    FAIR      50  19  28 W8        29.61F
$$

COZ086-089-092>099-051900-
...SOUTHEAST COLORADO...

CITY           SKY/WX    TMP DP  RH WIND       PRES   REMARKS
PUEBLO         FAIR      61  16  17 W32G43    29.59F
LA JUNTA       FAIR      55  20  25 W15       29.59F
LAMAR          FAIR      57  19  22 W9        29.57F
SPRINGFIELD      N/A     64  15  15 VRB6      29.57F
$$




USA.gov is the U.S. government's official web portal to all federal, state and local government web resources and services.